Powrót do katalogu

STARLINK-35919

AktywnyŁącznośćVLEO
NORAD 66888·PAYLOAD·🇺🇸 United States

Wystrzelony Dec 4, 2025 z Vandenberg Space Force Base

Loading…

Następne Przeloty (najbliższe 24 godziny)

TLE

ŚwieżeSource: CelesTrak SupGP

Epoka: Sep 14, 2026, 22:43 UTC

1 66888C 25283L   26257.94701389  .00012347  00000+0  36423-3 0  2573
2 66888  53.1573 221.8932 0001607  92.9913 328.7962 15.34432372    18

Śledź STARLINK-35919 w czasie rzeczywistym z AllMySat

Download on the App Store